STARLINK-34030

Satellite information

Favourite Embed

Satellite Type and Status

PAYLOADIN ORBIT

Key statistics

Satellite STARLINK-34030 at a glance.

Uptime

211

Days in orbit

Revolutions

≈ 15.0

Per day

Orbit

LEO

Low Earth Orbit

Inclination

70.0

Latest

Satellite identification and parameters

Extended collection of information and parameters for STARLINK-34030.

Object identification

Identified? True

Debris? False

Object name: STARLINK-34030

International designator: 2025-102J

Object number (NORAD): 64030

Object ID (CCSDS): 64030

Country: UNITED STATES OF AMERICA (US)

Current information (Y/N): Y

RCS size: LARGE

Orbital parameters

Period: 96.106 minutes

Inclination: 70.002 deg

SMA: 6950.143 km

Apoapsis: 574.164 km

Periapsis: 569.852 km

RAAN: 335.026 deg

Eccentricy: 0.0003102

Argument of periapsis: 270.8045 deg

Mean anomaly: 89.2758 deg

Mean motion: 14.98346198 rev/day

Mean motion (dot): 0.0000799 rev/day2

B* drag term: 0.00067639401 1/REarth

Two-line elements (TLE)

Creation date: Dec. 12, 2025, 10:14 a.m.

Reference frame: TEME

Reference center: EARTH

Epoch: Dec. 12, 2025, 6:27 a.m. UTC

TLE line 0: 0 STARLINK-34030

TLE line 1: 1 64030U 25102J 25346.26885397 .00007990 00000-0 67639-3 0 9990

TLE line 2: 2 64030 70.0020 335.0260 0003102 270.8045 89.2758 14.98346198 32866

Live tracking on map

Real-time ground track for satellite STARLINK-34030.

In-orbit conjunctions

There are no conjunctions computed for STARLINK-34030, at the moment. Check back to stay up to date, as we update our databases every day.

Go to all conjunctions

Associated space launch

A batch of 26 satellites for the Starlink mega-constellation - SpaceX's project for space-based Internet communication system.

STARLINK-34030 was lifted into orbit during the mission ‘Falcon 9 Block 5 | Starlink Group 15-5’, on board a Falcon 9 space rocket.

The launch took place on May 16, 2025, 1:43 p.m. from Space Launch Complex 4E.

For more information about the launch, click the button.

Launch to space Falcon 9 Block 5 | Starlink Group 15-5
Falcon 9 Block 5 | Starlink Group 15-5

Agency: SpaceX

Status: Launch Successful

Launch date: May 16, 2025, 1:43 p.m. UTC

Rocket: Falcon 9

Launch pad: Space Launch Complex 4E

Location: Vandenberg SFB, CA, USA

...

Latest news about this satellite

News about space launch
Live coverage: SpaceX plans morning launch of Starlink satellites from California

The Starlink 15-5 will be SpaceX’s 58th Falcon 9 launch of the year. Liftoff from pad 4 East at Vandneberg Space Force Base is targeted 6:43 a.m. PDT (9:43 a.m. EDT, 1343 UTC).

News about space launch
Launch Roundup: Orbital launches from five countries planned

On the heels of a busy April, activity is ramping up for May with launches… The post Launch Roundup: Orbital launches from five countries planned appeared first on NASASpaceFlight.com.


Newsletter sign-up

Weekly statistics, charts and insights to help you stay on top of the space industry.